Seward, AK

8:01 PM AKST on February 09, 2016 (GMT -0900)
Seward

Weather History for PAWD - October, 2010

Change the Weather History Date:

Saturday, October 16, 2010

  Actual Average Record
Temperature  
Mean Temperature 34 °F -  
Max Temperature 39 °F 45 °F 55 °F (2003)
Min Temperature 28 °F 34 °F 24 °F (1996)
Degree Days  
Heating Degree Days 32    
Moisture  
Dew Point 33 °F    
Average Humidity 87    
Maximum Humidity 93    
Minimum Humidity 76    
Precipitation  
Precipitation 0.26 in - - ()
Sea Level Pressure  
Sea Level Pressure 29.54 in    
Wind  
Wind Speed 2 mph (North)    
Max Wind Speed 6 mph    
Max Gust Speed -    
Visibility 10 miles    
Events Rain    
Averages and records for this station are not official NWS values.
T = Trace of Precipitation, MM = Missing Value Source: NWS Daily Summary

Daily Weather History Graph

Daily Weather History Graph

Search for Another Location

Airport or City:

Trip Planner

Search our weather history database for the weather conditions in past years. The results will help you decide how hot, cold, wet, or windy it might be!

Date:

Astronomy

Oct. 16, 2010 Rise Set
Actual Time 8:40 AM AKDT 6:44 PM AKDT
Civil Twilight 7:57 AM AKDT 7:27 PM AKDT
Nautical Twilight 7:09 AM AKDT 8:15 PM AKDT
Astronomical Twilight 6:20 AM AKDT 9:04 PM AKDT
Moon 5:02 PM AKDT (10/16) 1:09 AM AKDT (10/16)
Length of Visible Light 11h 29m
Length of Day
10h 04m
Waxing Gibbous, 68% of the Moon is Illuminated
Oct 16
Waxing Gibbous
Oct 22
Full
Oct 30
Last Quarter
Nov 5
New
Nov 13
First Quarter

Hourly Weather History & Observations

Time (AKDT) Temp. Windchill Dew Point Humidity Pressure Visibility Wind Dir Wind Speed Gust Speed Precip Events Conditions
12:53 AM 32.0 °F 27.5 °F 26.1 °F 79% 29.76 in 10.0 mi NNW 4.6 mph - N/A   Overcast
1:53 AM 30.9 °F 25.2 °F 27.0 °F 85% 29.75 in 10.0 mi North 5.8 mph - N/A   Partly Cloudy
2:53 AM 28.0 °F - 25.0 °F 88% 29.73 in 10.0 mi Calm Calm - N/A   Partly Cloudy
3:53 AM 30.9 °F 25.2 °F 27.0 °F 85% 29.70 in 10.0 mi North 5.8 mph - N/A   Mostly Cloudy
5:53 AM 32.0 °F 28.7 °F 27.0 °F 82% 29.66 in 10.0 mi NNE 3.5 mph - N/A   Overcast
6:53 AM 32.0 °F 26.4 °F 28.9 °F 88% 29.63 in 10.0 mi NNW 5.8 mph - N/A   Overcast
7:53 AM 33.1 °F 30.0 °F 28.9 °F 85% 29.62 in 10.0 mi North 3.5 mph - N/A   Overcast
8:53 AM 33.1 °F - 28.9 °F 85% 29.60 in 10.0 mi Calm Calm - N/A   Overcast
9:53 AM 34.0 °F 31.0 °F 30.0 °F 85% 29.59 in 10.0 mi NW 3.5 mph - N/A   Overcast
10:53 AM 37.0 °F - 32.0 °F 82% 29.57 in 10.0 mi Calm Calm - N/A   Overcast
11:53 AM 39.0 °F - 32.0 °F 76% 29.56 in 10.0 mi Calm Calm - 0.00 in   Overcast
12:24 PM 39.2 °F - 33.8 °F 81% 29.55 in 10.0 mi Calm Calm - 0.00 in Rain Light Rain
12:50 PM 39.2 °F - 33.8 °F 81% 29.55 in 10.0 mi Calm Calm - 0.00 in   Overcast
12:53 PM 39.0 °F - 33.1 °F 79% 29.55 in 10.0 mi Calm Calm - 0.00 in Rain Light Rain
1:02 PM 39.2 °F - 33.8 °F 81% 29.55 in 9.0 mi Calm Calm - 0.00 in Rain Light Rain
1:53 PM 39.9 °F - 36.0 °F 86% 29.53 in 10.0 mi Calm Calm - 0.02 in Rain Light Rain
2:53 PM 39.0 °F 36.8 °F 35.1 °F 86% 29.52 in 8.0 mi ESE 3.5 mph - 0.06 in Rain Light Rain
3:53 PM 39.0 °F - 35.1 °F 86% 29.50 in 10.0 mi Calm Calm - 0.03 in Rain Light Rain
4:53 PM 39.0 °F - 36.0 °F 89% 29.48 in 10.0 mi Calm Calm - 0.02 in Rain Light Rain
5:53 PM 39.0 °F - 36.0 °F 89% 29.47 in 10.0 mi Calm Calm - 0.04 in Rain Light Rain
6:33 PM 39.2 °F - 37.4 °F 93% 29.46 in 10.0 mi Calm Calm - 0.02 in Rain Light Rain
6:53 PM 39.0 °F - 36.0 °F 89% 29.46 in 10.0 mi Calm Calm - 0.02 in Rain Light Rain
7:02 PM 39.2 °F - 37.4 °F 93% 29.46 in 10.0 mi Calm Calm - 0.01 in Rain Light Rain
7:14 PM 39.2 °F - 35.6 °F 87% 29.46 in 10.0 mi Calm Calm - 0.01 in Rain Light Rain
7:50 PM 37.4 °F - 35.6 °F 93% 29.46 in 10.0 mi Calm Calm - 0.01 in Rain Light Rain
7:53 PM 37.9 °F - 36.0 °F 93% 29.46 in 10.0 mi Calm Calm - 0.01 in Rain Light Rain
8:53 PM 37.9 °F - 36.0 °F 93% 29.45 in 10.0 mi Calm Calm - 0.01 in Rain Light Rain
9:04 PM 37.4 °F - 35.6 °F 93% 29.44 in 10.0 mi Calm Calm - 0.00 in Rain Light Rain
9:53 PM 37.9 °F - 36.0 °F 93% 29.43 in 7.0 mi Calm Calm - 0.01 in Rain Light Rain
10:53 PM 37.9 °F - 36.0 °F 93% 29.42 in 10.0 mi Calm Calm - 0.02 in Rain Light Rain
11:53 PM 37.9 °F 35.5 °F 36.0 °F 93% 29.41 in 10.0 mi ENE 3.5 mph - 0.02 in Rain Light Rain